This is the latest recevied weather packets stored in our database for station/object K7ZQU-7. If no packets are shown the sender has not sent any weather packets the latest 10 day(s).
| Time | Temp. | Humidity | Pressure | Rain* | Wind** | Luminosity | Snow |
|---|---|---|---|---|---|---|---|
| 1777914582 | 17.78° C | 51% | 1012.2 hPa | 0 mm | 1.34 m/s, 308° | - | - |
| 1777914283 | 17.22° C | 51% | 1012.2 hPa | 0 mm | 1.79 m/s, 321° | - | - |
| 1777913682 | 17.22° C | 52% | 1012.1 hPa | 0 mm | 1.79 m/s, 295° | - | - |
| 1777913383 | 17.22° C | 55% | 1012 hPa | 0 mm | 1.34 m/s, 302° | - | - |
| 1777913084 | 16.67° C | 55% | 1012 hPa | 0 mm | 1.34 m/s, 284° | - | - |
| 1777912785 | 16.67° C | 56% | 1012 hPa | 0 mm | 1.34 m/s, 302° | - | - |
| 1777912486 | 16.67° C | 57% | 1011.9 hPa | 0 mm | 2.68 m/s, 295° | - | - |
| 1777911885 | 16.11° C | 58% | 1011.9 hPa | 0 mm | 2.68 m/s, 314° | - | - |
| 1777911586 | 15.56° C | 59% | 1011.9 hPa | 0 mm | 1.79 m/s, 288° | - | - |
| 1777910386 | 14.44° C | 63% | 1011.9 hPa | 0 mm | 1.34 m/s, 297° | - | - |
| 1777910087 | 14.44° C | 63% | 1011.8 hPa | 0 mm | 0.89 m/s, 301° | - | - |
| 1777909489 | 13.89° C | 63% | 1011.7 hPa | 0 mm | 2.24 m/s, 297° | - | - |
| 1777908888 | 13.89° C | 64% | 1011.7 hPa | 0 mm | 1.34 m/s, 323° | - | - |
| 1777908589 | 13.33° C | 66% | 1011.5 hPa | 0 mm | 1.79 m/s, 321° | - | - |
| 1777908289 | 12.78° C | 66% | 1011.5 hPa | 0 mm | 1.79 m/s, 301° | - | - |
| 1777907990 | 12.78° C | 69% | 1011.5 hPa | 0 mm | 1.79 m/s, 345° | - | - |
| 1777907688 | 12.78° C | 69% | 1011.5 hPa | 0 mm | 0.89 m/s, 274° | - | - |
| 1777907389 | 12.22° C | 69% | 1011.5 hPa | 0 mm | 1.34 m/s, 332° | - | - |
| 1777907090 | 12.22° C | 70% | 1011.4 hPa | 0 mm | 0.89 m/s, 329° | - | - |
| 1777906791 | 11.67° C | 70% | 1011.4 hPa | 0 mm | 1.79 m/s, 346° | - | - |
| 1777906190 | 11.11° C | 74% | 1011.4 hPa | 0 mm | 1.34 m/s, 309° | - | - |
| 1777905890 | 11.11° C | 76% | 1011.5 hPa | 0 mm | 0.45 m/s, 285° | - | - |
| 1777905292 | 9.44° C | 80% | 1011.5 hPa | 0 mm | 0.45 m/s, 316° | - | - |
| 1777904993 | 8.89° C | 82% | 1011.5 hPa | 0 mm | 0.45 m/s, 309° | - | - |
| 1777904691 | 8.33° C | 84% | 1011.5 hPa | 0 mm | 0.89 m/s, 274° | - | - |
* Rain latest hour (hover to see other rain measurements)
** Current wind speed in m/s (hover to see current wind gust speed)